Regional Weather Roundup
Issued by NWS Little Rock, AR

Home | Current Version | Previous Version | Graphics & Text | Print | Product List | Glossary On
Versions: 1 2 3 4 5 6 7 8 9 10 11 12 13 14 15 16 17 18 19 20 21 22 23 24 25 26 27 28 29 30 31 32 33 34 35 36 37 38 39 40 41 42 43 44 45 46 47 48
000
ASUS44 KLZK 040605
RWRLZK

WEATHER ROUNDUP FOR ARKANSAS
NATIONAL WEATHER SERVICE LITTLE ROCK AR
100 AM CDT MON MAY 04 2015

NOTE: "FAIR" INDICATES FEW OR NO CLOUDS BELOW 12,000 FEET WITH NO
SIGNIFICANT WEATHER AND/OR OBSTRUCTIONS TO VISIBILITY.

ARZ001-003-010-029-040700-
NORTHWEST ARKANSAS

CITY           SKY/WX    TMP DP  RH WIND       PRES   REMARKS
FAYETTEVILLE   CLEAR     63  56  78 S7        30.03R
6HR MIN TEMP:  63; 6HR MAX TEMP:  75;

FORT SMITH     CLEAR     67  55  65 CALM      30.02R
6HR MIN TEMP:  67; 6HR MAX TEMP:  79;

HARRISON       CLEAR     66  54  65 S5        30.04R
6HR MIN TEMP:  63; 6HR MAX TEMP:  75;

BENTONVILLE    CLEAR    N/A N/A N/A CALM      30.03R
ROGERS         CLEAR     64  55  72 S7        30.04R
6HR MIN TEMP:  63; 6HR MAX TEMP:  76;

SILOAM SPGS    CLEAR     61  50  67 S6        30.03S
6HR MIN TEMP:  61; 6HR MAX TEMP:  73;

HIGHFILL       CLEAR     62  54  74 S6        30.02R
6HR MIN TEMP:  62; 6HR MAX TEMP:  74;

$$

ARZ004-005-016-040700-
NORTH CENTRAL ARKANSAS

CITY           SKY/WX    TMP DP  RH WIND       PRES   REMARKS
BATESVILLE     CLEAR     66  55  68 S5        30.03S
6HR MIN TEMP:  66; 6HR MAX TEMP:  79;

FLIPPIN        CLEAR     66  55  68 CALM      30.01R
6HR MIN TEMP:  66; 6HR MAX TEMP:  79;

MTN HOME       CLEAR     65  55  70 CALM      30.02R
6HR MIN TEMP:  65; 6HR MAX TEMP:  76;

$$

ARZ040-041-040700-
WEST CENTRAL ARKANSAS

CITY           SKY/WX    TMP DP  RH WIND       PRES   REMARKS
MENA           CLEAR     70  55  60 CALM      30.05R
MOUNT IDA      CLEAR     70  56  61 CALM      30.02S
6HR MIN TEMP:  67; 6HR MAX TEMP:  77;

$$

ARZ009-017-025-026-028-040700-
NORTHEAST ARKANSAS

CITY           SKY/WX    TMP DP  RH WIND       PRES   REMARKS
CORNING          N/A     68  54  60 S10       30.03S
JONESBORO      CLEAR     65  53  65 S7        30.03F
6HR MIN TEMP:  60; 6HR MAX TEMP:  77;

NEWPORT        CLEAR     62  56  81 MISG      30.04S
6HR MIN TEMP:  63; 6HR MAX TEMP:  80;

WALNUT RIDGE   CLEAR     66  52  59 S10       30.02S
6HR MIN TEMP:  64; 6HR MAX TEMP:  79;

BLYTHEVILLE    CLEAR     66  51  58 S8        30.05S
6HR MIN TEMP:  66; 6HR MAX TEMP:  79;

$$

ARZ022-023-033-042-044-040700-
CENTRAL ARKANSAS

CITY           SKY/WX    TMP DP  RH WIND       PRES   REMARKS
LITTLE ROCK    CLEAR     65  56  72 S7        30.05R
6HR MIN TEMP:  65; 6HR MAX TEMP:  80;

N LITTLE ROCK    N/A     68  60  75 SW7       30.05R
6HR MIN TEMP:  67; 6HR MAX TEMP:  79;

JACKSONVILLE   CLEAR     68  58  71 S6        30.04R
6HR MIN TEMP:  62; 6HR MAX TEMP:  80;

SEARCY         CLEAR     59  58  96 SW3       30.05S
6HR MIN TEMP:  59; 6HR MAX TEMP:  79;

HOT SPRINGS    CLEAR     70  57  63 S5        30.05R
6HR MIN TEMP:  65; 6HR MAX TEMP:  78;

RUSSELLVILLE   CLEAR     61  58  90 CALM      30.03S
6HR MIN TEMP:  61; 6HR MAX TEMP:  79;

CLINTON        FAIR      57  55  94 CALM      30.05S FOG
$$

ARZ036-040700-
EAST ARKANSAS

CITY           SKY/WX    TMP DP  RH WIND       PRES   REMARKS
WEST MEMPHIS   CLEAR     64  56  75 S7        30.05S
6HR MIN TEMP:  63; 6HR MAX TEMP:  78;

$$

ARZ050-053-066-070-073-040700-
SOUTHWEST ARKANSAS

CITY           SKY/WX    TMP DP  RH WIND       PRES   REMARKS
ARKADELPHIA    FAIR      61  61 100 CALM      30.05R FOG
6HR MIN TEMP:  61; 6HR MAX TEMP:  80;

CAMDEN         CLEAR     59  57  94 CALM      30.06R
TEXARKANA      CLEAR     64  57  78 SE6       30.04R
6HR MIN TEMP:  64; 6HR MAX TEMP:  78;

EL DORADO      CLEAR     64  58  80 SE3       30.06R
6HR MIN TEMP:  62; 6HR MAX TEMP:  77;

DE QUEEN       CLEAR     58  57  97 CALM      30.02R FOG
6HR MIN TEMP:  58; 6HR MAX TEMP:  79;

$$

ARZ056-057-069-040700-
SOUTHEAST ARKANSAS

CITY           SKY/WX    TMP DP  RH WIND       PRES   REMARKS
PINE BLUFF     CLEAR     63  57  81 S6        30.06R
6HR MIN TEMP:  63; 6HR MAX TEMP:  80;

STUTTGART      CLEAR     68  55  64 S8        30.06R
6HR MIN TEMP:  68; 6HR MAX TEMP:  81;

MONTICELLO     CLEAR     66  56  70 S3        30.07R
6HR MIN TEMP:  66; 6HR MAX TEMP:  80;


$$




USA.gov is the U.S. government's official web portal to all federal, state and local government web resources and services.